User: anonymous   Login
Location: Unspecified
(0.0000°N, 0.0000°E)
Time: 06:08:51
(UTC+00:00)
Language:

NUSAT 2 - Orbit

View from above orbital plane
View from above orbital plane
View from above satellite
View from above satellite

Ground track
Ground track

The orbit data is extracted from the following two-line orbital elements,

1 41558U 16033C   17296.67396613  .00002624  00000-0  10051-3 0  9996
2 41558  97.4579  16.2381 0011880 272.4697  87.5181 15.27398630 78034
Epoch (UTC): 23 October 2017 16:10:30
Eccentricity: 0.0011880
inclination: 97.4579°
perigee height: 475 km
apogee height: 492 km
right ascension of ascending node: 16.2381°
argument of perigee: 272.4697°
revolutions per day: 15.27398630
mean anomaly at epoch: 87.5181°
orbit number at epoch: 7803

The dashed part of the orbit path shows where the satellite is in the earth's shadow,  

DLR